Time,TemperatureF,DewpointF,PressureIn,WindDirection,WindDirectionDegrees,WindSpeedMPH,WindSpeedGustMPH,Humidity,HourlyPrecipIn,Conditions,Clouds,dailyrainin,SoftwareType,DateUTC
2012-11-14 00:01:00,77.0,73.5,29.98,WSW,240,4.6,4.6,89,0.00,RA,,0.00,WeatherDisplay:10.37,2012-11-14 06:01:00,
2012-11-14 00:06:00,76.9,73.7,29.98,WSW,250,4.6,4.6,90,0.00,RA,,0.00,WeatherDisplay:10.37,2012-11-14 06:06:00,
2012-11-14 00:11:00,76.7,73.2,29.98,WSW,249,4.6,4.6,89,0.00,CLR,,0.00,WeatherDisplay:10.37,2012-11-14 06:11:00,
2012-11-14 00:16:00,76.5,73.0,29.98,West,259,4.0,4.0,89,0.00,CLR,,0.00,WeatherDisplay:10.37,2012-11-14 06:16:00,
2012-11-14 00:21:00,76.3,72.8,29.98,WNW,288,3.5,3.5,89,0.00,CLR,,0.00,WeatherDisplay:10.37,2012-11-14 06:21:00,
2012-11-14 00:26:00,76.1,73.0,29.98,West,271,4.6,4.6,90,0.00,CLR,,0.00,WeatherDisplay:10.37,2012-11-14 06:26:00,
2012-11-14 00:31:00,76.0,72.9,29.98,West,281,3.5,3.5,90,0.00,CLR,,0.00,WeatherDisplay:10.37,2012-11-14 06:31:00,
2012-11-14 00:36:00,75.8,73.0,29.98,WSW,243,4.0,4.0,91,0.00,CLR,,0.00,WeatherDisplay:10.37,2012-11-14 06:36:00,
2012-11-14 00:41:00,75.7,72.9,29.97,WSW,245,3.5,3.5,91,0.00,CLR,,0.00,WeatherDisplay:10.37,2012-11-14 06:41:00,
2012-11-14 00:46:00,75.6,73.1,29.98,West,281,4.0,4.0,92,0.00,CLR,,0.00,WeatherDisplay:10.37,2012-11-14 06:46:00,
2012-11-14 00:51:00,75.6,73.1,29.97,WSW,249,3.5,3.5,92,0.00,CLR,,0.00,WeatherDisplay:10.37,2012-11-14 06:51:00,
2012-11-14 00:56:00,75.6,73.4,29.97,WSW,255,7.0,7.0,93,0.00,CLR,,0.00,WeatherDisplay:10.37,2012-11-14 06:56:00,
2012-11-14 01:01:00,75.7,73.2,29.97,West,261,5.8,5.8,92,0.00,CLR,,0.00,WeatherDisplay:10.37,2012-11-14 07:01:00,
2012-11-14 01:06:00,75.7,73.2,29.97,WSW,243,5.8,5.8,92,0.00,CLR,,0.00,WeatherDisplay:10.37,2012-11-14 07:06:00,
2012-11-14 01:11:00,75.6,73.4,29.96,WNW,290,5.8,5.8,93,0.00,CLR,,0.00,WeatherDisplay:10.37,2012-11-14 07:11:00,
2012-11-14 01:16:00,75.6,73.8,29.96,West,259,6.9,6.9,94,0.00,CLR,,0.00,WeatherDisplay:10.37,2012-11-14 07:16:00,
2012-11-14 01:21:00,76.1,74.2,29.96,WNW,286,5.8,5.8,94,0.00,CLR,,0.00,WeatherDisplay:10.37,2012-11-14 07:21:00,
2012-11-14 01:26:00,76.4,74.5,29.95,WSW,250,6.9,6.9,94,0.00,CLR,,0.00,WeatherDisplay:10.37,2012-11-14 07:26:00,
2012-11-14 01:31:00,76.5,74.0,29.95,WSW,252,5.8,5.8,92,0.00,CLR,,0.00,WeatherDisplay:10.37,2012-11-14 07:31:00,
2012-11-14 01:36:00,76.5,74.0,29.95,West,269,4.6,4.6,92,0.00,CLR,,0.00,WeatherDisplay:10.37,2012-11-14 07:36:00,
2012-11-14 01:41:00,76.6,74.1,29.95,West,266,3.5,3.5,92,0.00,CLR,,0.00,WeatherDisplay:10.37,2012-11-14 07:41:00,
2012-11-14 01:46:00,76.5,73.7,29.95,WSW,249,6.0,6.0,91,0.00,CLR,,0.00,WeatherDisplay:10.37,2012-11-14 07:46:00,
2012-11-14 01:51:00,76.5,73.7,29.96,West,277,4.6,4.6,91,0.00,CLR,,0.00,WeatherDisplay:10.37,2012-11-14 07:51:00,
2012-11-14 01:56:00,76.4,73.6,29.95,WSW,255,3.5,3.5,91,0.00,CLR,,0.00,WeatherDisplay:10.37,2012-11-14 07:56:00,
2012-11-14 02:01:00,76.4,73.9,29.95,WSW,253,4.0,4.0,92,0.00,CLR,,0.00,WeatherDisplay:10.37,2012-11-14 08:01:00,
2012-11-14 02:06:00,76.6,74.4,29.95,SSW,210,4.6,4.6,93,0.00,CLR,,0.00,WeatherDisplay:10.37,2012-11-14 08:06:00,
2012-11-14 02:11:00,76.7,73.9,29.95,WSW,239,5.8,5.8,91,0.00,CLR,,0.00,WeatherDisplay:10.37,2012-11-14 08:11:00,
2012-11-14 02:16:00,76.7,74.2,29.95,WSW,249,9.0,9.0,92,0.00,CLR,,0.00,WeatherDisplay:10.37,2012-11-14 08:16:00,
2012-11-14 02:21:00,76.8,74.0,29.95,West,260,5.8,5.8,91,0.00,CLR,,0.00,WeatherDisplay:10.37,2012-11-14 08:21:00,
2012-11-14 02:26:00,76.6,73.8,29.96,East,83,3.0,3.1,91,0.00,CLR,,0.00,WeatherDisplay:10.37,2012-11-14 08:26:00,
2012-11-14 02:31:00,75.9,72.4,29.96,NW,310,5.8,5.8,89,0.00,CLR,,0.00,WeatherDisplay:10.37,2012-11-14 08:31:00,
2012-11-14 02:37:00,75.4,70.9,29.97,WNW,300,7.0,7.0,86,0.04,RA,,0.07,WeatherDisplay:10.37,2012-11-14 08:37:00,
2012-11-14 02:42:00,74.2,71.1,29.96,NNE,30,2.3,2.3,90,0.22,RA,,0.22,WeatherDisplay:10.37,2012-11-14 08:42:00,
2012-11-14 02:47:00,73.3,70.8,29.96,WNW,295,3.5,3.5,92,0.25,RA,,0.25,WeatherDisplay:10.37,2012-11-14 08:47:00,
2012-11-14 02:52:00,73.0,70.9,29.96,NNW,341,3.5,3.5,93,0.29,RA,,0.31,WeatherDisplay:10.37,2012-11-14 08:52:00,
2012-11-14 02:57:00,72.8,71.0,29.97,NE,37,5.8,5.8,94,0.36,RA,,0.42,WeatherDisplay:10.37,2012-11-14 08:57:00,
2012-11-14 03:02:00,72.6,70.8,29.96,ESE,108,6.9,7.1,94,0.74,RA,,0.78,WeatherDisplay:10.37,2012-11-14 09:02:00,
2012-11-14 03:07:00,72.6,71.1,29.97,East,101,1.1,1.1,95,0.83,RA,,0.83,WeatherDisplay:10.37,2012-11-14 09:07:00,
2012-11-14 03:12:00,72.5,71.0,29.97,East,94,2.3,2.3,95,0.85,RA,,0.85,WeatherDisplay:10.37,2012-11-14 09:12:00,
2012-11-14 03:17:00,72.7,71.5,29.97,ENE,62,2.3,2.3,96,0.85,RA,,0.85,WeatherDisplay:10.37,2012-11-14 09:17:00,
2012-11-14 03:22:00,72.7,71.5,29.96,East,79,3.5,3.5,96,0.85,,,0.85,WeatherDisplay:10.37,2012-11-14 09:22:00,
2012-11-14 03:27:00,72.8,71.6,29.97,ENE,76,5.8,5.8,96,0.85,CLR,,0.85,WeatherDisplay:10.37,2012-11-14 09:27:00,
2012-11-14 03:32:00,72.9,71.7,29.97,NNE,27,3.5,3.8,96,0.92,RA,,0.99,WeatherDisplay:10.37,2012-11-14 09:32:00,
2012-11-14 03:37:00,72.8,71.3,29.96,ENE,60,5.8,6.3,95,1.24,RA,,1.31,WeatherDisplay:10.37,2012-11-14 09:37:00,
2012-11-14 03:42:00,72.7,71.2,29.96,ENE,77,2.3,2.3,95,1.12,RA,,1.34,WeatherDisplay:10.37,2012-11-14 09:42:00,
2012-11-14 03:47:00,72.8,71.3,29.96,WNW,284,3.5,3.5,95,1.09,RA,,1.34,WeatherDisplay:10.37,2012-11-14 09:47:00,
2012-11-14 03:52:00,72.8,71.3,29.97,SW,226,1.1,0.0,95,1.05,CLR,,1.34,WeatherDisplay:10.37,2012-11-14 09:52:00,
2012-11-14 03:57:00,72.8,71.3,29.96,WSW,252,2.0,2.0,95,0.98,CLR,,1.34,WeatherDisplay:10.37,2012-11-14 09:57:00,
2012-11-14 04:02:00,73.1,71.6,29.96,SSE,150,4.6,4.6,95,0.60,CLR,,1.34,WeatherDisplay:10.37,2012-11-14 10:02:00,
2012-11-14 04:07:00,73.5,71.7,29.96,SW,221,2.0,2.0,94,0.51,CLR,,1.34,WeatherDisplay:10.37,2012-11-14 10:07:00,
2012-11-14 04:12:00,73.6,71.8,29.96,WNW,284,1.1,0.0,94,0.49,CLR,,1.34,WeatherDisplay:10.37,2012-11-14 10:12:00,
2012-11-14 04:17:00,73.5,71.7,29.96,West,273,1.1,1.1,94,0.49,CLR,,1.34,WeatherDisplay:10.37,2012-11-14 10:17:00,
2012-11-14 04:22:00,73.8,72.3,29.96,SW,226,3.5,3.5,95,0.49,CLR,,1.34,WeatherDisplay:10.37,2012-11-14 10:22:00,
2012-11-14 04:27:00,74.3,72.1,29.96,SSW,195,5.8,5.8,93,0.49,CLR,,1.34,WeatherDisplay:10.37,2012-11-14 10:27:00,
2012-11-14 04:32:00,74.7,72.5,29.96,SW,221,8.1,8.1,93,0.35,CLR,,1.34,WeatherDisplay:10.37,2012-11-14 10:32:00,
2012-11-14 04:37:00,75.0,72.8,29.97,SSW,203,6.9,6.9,93,0.03,CLR,,1.34,WeatherDisplay:10.37,2012-11-14 10:37:00,
2012-11-14 04:42:00,75.2,72.7,29.97,South,169,7.0,7.0,92,0.00,CLR,,1.34,WeatherDisplay:10.37,2012-11-14 10:42:00,
2012-11-14 04:47:00,75.5,73.3,29.97,SW,214,6.9,6.9,93,0.00,CLR,,1.34,WeatherDisplay:10.37,2012-11-14 10:47:00,
2012-11-14 04:52:00,75.9,73.4,29.97,WNW,291,4.6,4.6,92,0.00,CLR,,1.34,WeatherDisplay:10.37,2012-11-14 10:52:00,
2012-11-14 04:57:00,75.7,73.2,29.98,NNE,18,0.0,0.0,92,0.00,CLR,,1.34,WeatherDisplay:10.37,2012-11-14 10:57:00,
2012-11-14 05:02:00,75.4,72.9,29.98,ENE,62,3.5,3.5,92,0.00,CLR,,1.34,WeatherDisplay:10.37,2012-11-14 11:02:00,
2012-11-14 05:07:00,74.8,72.6,29.98,East,89,2.3,2.3,93,0.00,CLR,,1.34,WeatherDisplay:10.37,2012-11-14 11:07:00,
2012-11-14 05:12:00,75.0,73.2,29.98,ENE,65,8.1,8.1,94,0.00,CLR,,1.34,WeatherDisplay:10.37,2012-11-14 11:12:00,
2012-11-14 05:17:00,75.4,73.2,29.98,ENE,65,9.2,9.2,93,0.00,CLR,,1.34,WeatherDisplay:10.37,2012-11-14 11:17:00,
2012-11-14 05:22:00,76.0,73.5,29.98,South,171,8.1,8.1,92,0.00,CLR,,1.34,WeatherDisplay:10.37,2012-11-14 11:22:00,
2012-11-14 05:27:00,76.1,73.3,29.98,SSW,207,6.9,6.9,91,0.00,CLR,,1.34,WeatherDisplay:10.37,2012-11-14 11:27:00,
2012-11-14 05:32:00,76.3,73.1,29.98,WSW,240,12.7,12.7,90,0.00,CLR,,1.34,WeatherDisplay:10.37,2012-11-14 11:32:00,
2012-11-14 05:37:00,76.3,73.5,29.99,SE,130,8.1,8.1,91,0.00,CLR,,1.34,WeatherDisplay:10.37,2012-11-14 11:37:00,
2012-11-14 05:42:00,76.2,73.1,29.99,ESE,122,11.5,11.5,90,0.00,CLR,,1.34,WeatherDisplay:10.37,2012-11-14 11:42:00,
2012-11-14 05:47:00,76.3,73.5,29.99,West,259,8.1,8.1,91,0.00,CLR,,1.34,WeatherDisplay:10.37,2012-11-14 11:47:00,
2012-11-14 05:52:00,76.0,73.2,29.99,SW,233,7.0,7.0,91,0.00,CLR,,1.34,WeatherDisplay:10.37,2012-11-14 11:52:00,
2012-11-14 05:57:00,75.7,72.9,30.00,WSW,255,8.1,8.1,91,0.01,RA,,1.35,WeatherDisplay:10.37,2012-11-14 11:57:00,
2012-11-14 06:02:00,75.4,72.9,30.00,West,268,5.8,5.8,92,0.01,RA,,1.35,WeatherDisplay:10.37,2012-11-14 12:02:00,
2012-11-14 06:07:00,75.0,72.5,30.00,SSW,208,8.1,8.1,92,0.01,,,1.35,WeatherDisplay:10.37,2012-11-14 12:07:00,
2012-11-14 06:12:00,75.1,72.9,30.00,SW,231,10.4,10.4,93,0.01,CLR,,1.35,WeatherDisplay:10.37,2012-11-14 12:12:00,
2012-11-14 06:17:00,75.4,73.2,30.01,SSE,147,8.1,8.1,93,0.01,CLR,,1.35,WeatherDisplay:10.37,2012-11-14 12:17:00,
2012-11-14 06:22:00,75.4,72.9,30.01,SSW,210,8.1,8.1,92,0.01,CLR,,1.35,WeatherDisplay:10.37,2012-11-14 12:22:00,
2012-11-14 06:27:00,75.4,73.2,30.01,WSW,245,6.9,6.9,93,0.01,CLR,,1.35,WeatherDisplay:10.37,2012-11-14 12:27:00,
2012-11-14 06:32:00,75.3,72.8,30.01,West,263,7.0,7.0,92,0.01,CLR,,1.35,WeatherDisplay:10.37,2012-11-14 12:32:00,
2012-11-14 06:37:00,75.3,72.8,30.02,SW,229,11.5,11.5,92,0.01,CLR,,1.35,WeatherDisplay:10.37,2012-11-14 12:37:00,
2012-11-14 06:42:00,75.2,72.4,30.02,WSW,240,10.4,10.4,91,0.01,CLR,,1.35,WeatherDisplay:10.37,2012-11-14 12:42:00,
2012-11-14 06:47:00,75.0,72.8,30.02,SW,229,8.1,8.1,93,0.01,CLR,,1.35,WeatherDisplay:10.37,2012-11-14 12:47:00,
2012-11-14 06:52:00,75.0,72.5,30.02,SSW,213,9.2,9.2,92,0.01,CLR,,1.35,WeatherDisplay:10.37,2012-11-14 12:52:00,
2012-11-14 06:57:00,75.0,72.5,30.02,SSW,195,11.5,11.5,92,0.00,CLR,,1.35,WeatherDisplay:10.37,2012-11-14 12:57:00,
2012-11-14 07:02:00,75.2,72.4,30.02,SSE,160,14.0,14.0,91,0.00,CLR,,1.35,WeatherDisplay:10.37,2012-11-14 13:02:00,
2012-11-14 07:07:00,75.3,72.5,30.03,SW,214,11.5,11.5,91,0.00,CLR,,1.35,WeatherDisplay:10.37,2012-11-14 13:07:00,
2012-11-14 07:12:00,75.3,72.5,30.03,WSW,245,11.5,11.5,91,0.00,CLR,,1.35,WeatherDisplay:10.37,2012-11-14 13:12:00,
2012-11-14 07:17:00,75.6,73.1,30.03,SSE,166,10.4,10.4,92,0.00,CLR,,1.35,WeatherDisplay:10.37,2012-11-14 13:17:00,
2012-11-14 07:22:00,75.7,72.6,30.03,WSW,240,12.7,12.7,90,0.00,CLR,,1.35,WeatherDisplay:10.37,2012-11-14 13:22:00,
2012-11-14 07:27:00,75.9,73.1,30.03,West,266,11.5,11.5,91,0.00,CLR,,1.35,WeatherDisplay:10.37,2012-11-14 13:27:00,
2012-11-14 07:32:00,76.0,72.9,30.03,WSW,253,12.7,12.7,90,0.00,CLR,,1.35,WeatherDisplay:10.37,2012-11-14 13:32:00,
2012-11-14 07:37:00,76.0,72.2,30.04,SSW,196,10.4,10.4,88,0.00,CLR,,1.35,WeatherDisplay:10.37,2012-11-14 13:37:00,
2012-11-14 07:42:00,76.0,73.5,30.04,South,186,13.8,13.8,92,0.00,CLR,,1.35,WeatherDisplay:10.37,2012-11-14 13:42:00,
2012-11-14 07:47:00,75.7,72.6,30.04,SW,214,12.0,12.0,90,0.00,CLR,,1.35,WeatherDisplay:10.37,2012-11-14 13:47:00,
2012-11-14 07:53:00,75.7,72.6,30.04,SW,219,10.4,10.4,90,0.00,CLR,,1.35,WeatherDisplay:10.37,2012-11-14 13:53:00,
2012-11-14 07:58:00,75.8,72.3,30.05,SSE,166,11.5,11.5,89,0.00,CLR,,1.35,WeatherDisplay:10.37,2012-11-14 13:58:00,
2012-11-14 08:03:00,76.1,72.6,30.05,SW,217,12.7,12.7,89,0.00,CLR,,1.35,WeatherDisplay:10.37,2012-11-14 14:03:00,
2012-11-14 08:08:00,76.0,72.5,30.05,SW,222,11.5,11.5,89,0.00,CLR,,1.35,WeatherDisplay:10.37,2012-11-14 14:08:00,
2012-11-14 08:13:00,76.1,72.3,30.05,NW,322,11.5,11.5,88,0.00,CLR,,1.35,WeatherDisplay:10.37,2012-11-14 14:13:00,
2012-11-14 08:18:00,76.3,72.5,30.05,SSW,205,9.0,9.0,88,0.00,CLR,,1.35,WeatherDisplay:10.37,2012-11-14 14:18:00,
2012-11-14 08:23:00,76.7,72.9,30.05,SW,224,9.2,9.2,88,0.00,CLR,,1.35,WeatherDisplay:10.37,2012-11-14 14:23:00,
2012-11-14 08:28:00,77.1,72.9,30.05,WSW,240,9.2,9.2,87,0.00,CLR,,1.35,WeatherDisplay:10.37,2012-11-14 14:28:00,
2012-11-14 08:33:00,77.3,72.8,30.05,WSW,239,12.7,12.7,86,0.00,CLR,,1.35,WeatherDisplay:10.37,2012-11-14 14:33:00,
2012-11-14 08:38:00,77.6,72.4,30.05,SW,229,17.3,17.3,84,0.00,CLR,,1.35,WeatherDisplay:10.37,2012-11-14 14:38:00,
2012-11-14 08:43:00,78.0,73.5,30.05,West,266,15.0,15.0,86,0.00,CLR,,1.35,WeatherDisplay:10.37,2012-11-14 14:43:00,
2012-11-14 08:48:00,77.9,73.0,30.05,SSW,208,16.1,16.1,85,0.00,CLR,,1.35,WeatherDisplay:10.37,2012-11-14 14:48:00,
2012-11-14 08:53:00,78.0,73.5,30.05,South,190,13.0,13.0,86,0.00,CLR,,1.35,WeatherDisplay:10.37,2012-11-14 14:53:00,
2012-11-14 08:58:00,78.3,73.4,30.05,SW,229,17.0,17.0,85,0.00,CLR,,1.35,WeatherDisplay:10.37,2012-11-14 14:58:00,
2012-11-14 09:03:00,78.6,73.4,30.05,South,169,17.3,17.3,84,0.00,CLR,,1.35,WeatherDisplay:10.37,2012-11-14 15:03:00,
2012-11-14 09:08:00,78.6,72.6,30.05,SW,215,19.6,19.6,82,0.00,CLR,,1.35,WeatherDisplay:10.37,2012-11-14 15:08:00,
2012-11-14 09:13:00,78.7,73.1,30.06,WSW,249,19.6,19.6,83,0.00,CLR,,1.35,WeatherDisplay:10.37,2012-11-14 15:13:00,
2012-11-14 09:18:00,78.4,72.8,30.06,WSW,240,18.4,18.4,83,0.00,CLR,,1.35,WeatherDisplay:10.37,2012-11-14 15:18:00,
2012-11-14 09:23:00,78.7,73.5,30.06,SW,236,18.4,18.4,84,0.00,CLR,,1.35,WeatherDisplay:10.37,2012-11-14 15:23:00,
2012-11-14 09:28:00,78.6,73.4,30.05,SSW,204,19.6,19.6,84,0.00,CLR,,1.35,WeatherDisplay:10.37,2012-11-14 15:28:00,
2012-11-14 09:33:00,78.7,74.2,30.05,WSW,245,12.7,12.7,86,0.00,CLR,,1.35,WeatherDisplay:10.37,2012-11-14 15:33:00,
2012-11-14 09:38:00,78.5,73.6,30.05,SSW,210,19.6,19.6,85,0.00,CLR,,1.35,WeatherDisplay:10.37,2012-11-14 15:38:00,
2012-11-14 09:43:00,78.7,73.5,30.05,SSE,162,18.4,18.4,84,0.00,CLR,,1.35,WeatherDisplay:10.37,2012-11-14 15:43:00,
2012-11-14 09:48:00,79.2,73.9,30.05,SW,217,16.1,16.1,84,0.00,CLR,,1.35,WeatherDisplay:10.37,2012-11-14 15:48:00,
2012-11-14 09:53:00,79.1,74.5,30.05,SW,217,18.4,18.4,86,0.00,CLR,,1.35,WeatherDisplay:10.37,2012-11-14 15:53:00,
2012-11-14 09:58:00,78.5,73.3,30.05,SSW,197,17.3,17.3,84,0.00,CLR,,1.35,WeatherDisplay:10.37,2012-11-14 15:58:00,
2012-11-14 10:03:00,78.2,73.3,30.05,South,186,17.3,17.3,85,0.00,CLR,,1.35,WeatherDisplay:10.37,2012-11-14 16:03:00,
2012-11-14 10:08:00,77.9,73.4,30.05,SW,221,12.7,12.7,86,0.00,CLR,,1.35,WeatherDisplay:10.37,2012-11-14 16:08:00,
2012-11-14 10:13:00,78.0,73.5,30.05,South,174,13.8,13.8,86,0.00,CLR,,1.35,WeatherDisplay:10.37,2012-11-14 16:13:00,
2012-11-14 10:18:00,78.1,73.2,30.05,SSW,212,16.1,16.1,85,0.00,CLR,,1.35,WeatherDisplay:10.37,2012-11-14 16:18:00,
2012-11-14 10:23:00,78.0,73.5,30.05,West,269,15.0,15.0,86,0.00,CLR,,1.35,WeatherDisplay:10.37,2012-11-14 16:23:00,
2012-11-14 10:28:00,78.4,73.9,30.05,WSW,245,14.0,14.0,86,0.00,CLR,,1.35,WeatherDisplay:10.37,2012-11-14 16:28:00,
2012-11-14 10:33:00,78.6,73.7,30.04,WSW,242,12.7,12.7,85,0.00,CLR,,1.35,WeatherDisplay:10.37,2012-11-14 16:33:00,
2012-11-14 10:38:00,78.7,73.8,30.04,SSW,197,17.3,17.3,85,0.00,CLR,,1.35,WeatherDisplay:10.37,2012-11-14 16:38:00,
2012-11-14 10:43:00,78.9,74.7,30.04,SSW,200,15.0,15.0,87,0.00,CLR,,1.35,WeatherDisplay:10.37,2012-11-14 16:43:00,
2012-11-14 10:48:00,78.7,73.5,30.03,West,266,18.0,18.0,84,0.00,CLR,,1.35,WeatherDisplay:10.37,2012-11-14 16:48:00,
2012-11-14 10:53:00,78.8,73.9,30.03,SW,223,13.8,13.8,85,0.00,CLR,,1.35,WeatherDisplay:10.37,2012-11-14 16:53:00,
2012-11-14 10:58:00,78.9,74.4,30.03,WNW,288,15.0,15.0,86,0.00,CLR,,1.35,WeatherDisplay:10.37,2012-11-14 16:58:00,
2012-11-14 11:03:00,78.9,74.0,30.03,SW,217,18.4,18.4,85,0.00,CLR,,1.35,WeatherDisplay:10.37,2012-11-14 17:03:00,
2012-11-14 11:08:00,78.7,74.2,30.03,SW,225,16.1,16.1,86,0.00,CLR,,1.35,WeatherDisplay:10.37,2012-11-14 17:08:00,
2012-11-14 11:13:00,78.8,73.9,30.03,SSW,204,16.1,16.1,85,0.00,CLR,,1.35,WeatherDisplay:10.37,2012-11-14 17:13:00,
2012-11-14 11:18:00,79.2,74.6,30.02,SSW,207,17.3,17.3,86,0.00,CLR,,1.35,WeatherDisplay:10.37,2012-11-14 17:18:00,
2012-11-14 11:23:00,79.2,75.0,30.02,SW,236,12.7,12.7,87,0.00,CLR,,1.35,WeatherDisplay:10.37,2012-11-14 17:23:00,
2012-11-14 11:28:00,79.0,74.8,30.02,SW,225,16.1,16.1,87,0.00,CLR,,1.35,WeatherDisplay:10.37,2012-11-14 17:28:00,
2012-11-14 11:33:00,78.8,74.3,30.02,SSW,208,12.7,12.7,86,0.00,CLR,,1.35,WeatherDisplay:10.37,2012-11-14 17:33:00,
2012-11-14 11:38:00,78.0,74.5,30.02,ENE,68,11.5,11.5,89,0.00,CLR,,1.35,WeatherDisplay:10.37,2012-11-14 17:38:00,
2012-11-14 11:43:00,77.3,73.8,30.02,SW,221,11.5,11.5,89,0.00,CLR,,1.35,WeatherDisplay:10.37,2012-11-14 17:43:00,
2012-11-14 11:48:00,76.9,73.7,30.02,WSW,245,9.2,9.2,90,0.00,CLR,,1.35,WeatherDisplay:10.37,2012-11-14 17:48:00,
2012-11-14 11:53:00,76.9,73.7,30.01,WSW,252,16.1,16.1,90,0.00,CLR,,1.35,WeatherDisplay:10.37,2012-11-14 17:53:00,
2012-11-14 11:58:00,77.3,73.8,30.01,SW,226,13.8,13.8,89,0.01,RA,,1.36,WeatherDisplay:10.37,2012-11-14 17:58:00,
2012-11-14 12:03:00,77.9,74.4,30.01,NW,323,10.4,10.4,89,0.01,RA,,1.36,WeatherDisplay:10.37,2012-11-14 18:03:00,
2012-11-14 12:08:00,77.9,74.1,30.01,SSW,202,6.9,6.9,88,0.01,CLR,,1.36,WeatherDisplay:10.37,2012-11-14 18:08:00,
2012-11-14 12:13:00,77.9,74.1,30.01,SW,217,10.4,10.4,88,0.01,CLR,,1.36,WeatherDisplay:10.37,2012-11-14 18:13:00,
2012-11-14 12:18:00,77.7,73.9,30.01,South,188,11.5,11.5,88,0.01,CLR,,1.36,WeatherDisplay:10.37,2012-11-14 18:18:00,
2012-11-14 12:23:00,77.7,73.9,30.00,West,277,12.7,12.7,88,0.01,CLR,,1.36,WeatherDisplay:10.37,2012-11-14 18:23:00,
2012-11-14 12:28:00,77.7,73.5,30.00,NNW,330,6.9,6.9,87,0.01,CLR,,1.36,WeatherDisplay:10.37,2012-11-14 18:28:00,
2012-11-14 12:33:00,77.7,73.5,30.00,West,270,10.4,10.4,87,0.01,CLR,,1.36,WeatherDisplay:10.37,2012-11-14 18:33:00,
2012-11-14 12:38:00,77.5,73.3,30.00,SSW,210,11.0,11.0,87,0.01,CLR,,1.36,WeatherDisplay:10.37,2012-11-14 18:38:00,
2012-11-14 12:43:00,77.2,73.4,30.00,WNW,284,10.4,10.4,88,0.01,CLR,,1.36,WeatherDisplay:10.37,2012-11-14 18:43:00,
2012-11-14 12:48:00,77.3,73.1,30.00,SW,229,9.2,9.2,87,0.01,CLR,,1.36,WeatherDisplay:10.37,2012-11-14 18:48:00,
2012-11-14 12:53:00,77.6,73.8,30.00,WSW,245,11.5,11.5,88,0.01,CLR,,1.36,WeatherDisplay:10.37,2012-11-14 18:53:00,
2012-11-14 12:58:00,77.6,73.4,29.99,West,280,13.8,13.8,87,0.00,CLR,,1.36,WeatherDisplay:10.37,2012-11-14 18:58:00,
2012-11-14 13:03:00,77.7,73.2,29.99,SW,215,11.0,11.0,86,0.00,CLR,,1.36,WeatherDisplay:10.37,2012-11-14 19:03:00,
2012-11-14 13:08:00,77.8,72.9,29.99,SW,231,17.3,17.3,85,0.00,CLR,,1.36,WeatherDisplay:10.37,2012-11-14 19:08:00,
2012-11-14 13:13:00,78.1,73.2,29.98,South,176,10.4,10.4,85,0.00,CLR,,1.36,WeatherDisplay:10.37,2012-11-14 19:13:00,
2012-11-14 13:18:00,78.1,73.2,29.98,West,260,16.1,16.1,85,0.00,CLR,,1.36,WeatherDisplay:10.37,2012-11-14 19:18:00,
2012-11-14 13:23:00,78.1,73.6,29.98,SSW,211,18.0,18.0,86,0.00,CLR,,1.36,WeatherDisplay:10.37,2012-11-14 19:23:00,
2012-11-14 13:28:00,77.8,73.3,29.98,WSW,249,15.0,15.0,86,0.00,CLR,,1.36,WeatherDisplay:10.37,2012-11-14 19:28:00,
2012-11-14 13:33:00,77.5,73.0,29.98,SW,222,13.8,13.8,86,0.00,CLR,,1.36,WeatherDisplay:10.37,2012-11-14 19:33:00,
2012-11-14 13:38:00,77.4,73.2,29.98,SW,233,11.5,11.5,87,0.00,CLR,,1.36,WeatherDisplay:10.37,2012-11-14 19:38:00,
2012-11-14 13:43:00,77.4,73.6,29.98,SSW,207,12.7,12.7,88,0.00,CLR,,1.36,WeatherDisplay:10.37,2012-11-14 19:43:00,
2012-11-14 13:48:00,77.4,73.6,29.98,WSW,256,11.5,11.5,88,0.00,CLR,,1.36,WeatherDisplay:10.37,2012-11-14 19:48:00,
2012-11-14 13:53:00,77.1,72.9,29.98,SSW,201,12.7,12.7,87,0.00,CLR,,1.36,WeatherDisplay:10.37,2012-11-14 19:53:00,
2012-11-14 13:58:00,76.6,73.1,29.98,SW,216,11.5,11.5,89,0.02,RA,,1.38,WeatherDisplay:10.37,2012-11-14 19:58:00,
2012-11-14 14:03:00,75.7,72.6,29.98,WSW,242,8.1,8.1,90,0.07,RA,,1.43,WeatherDisplay:10.37,2012-11-14 20:03:00,
2012-11-14 14:08:00,75.1,72.6,29.98,WSW,255,12.7,12.7,92,0.15,RA,,1.52,WeatherDisplay:10.37,2012-11-14 20:08:00,
2012-11-14 14:13:00,74.8,72.6,29.98,West,269,5.8,5.8,93,0.22,RA,,1.58,WeatherDisplay:10.37,2012-11-14 20:13:00,
2012-11-14 14:18:00,74.4,72.2,29.97,WNW,288,3.5,3.5,93,0.25,RA,,1.61,WeatherDisplay:10.37,2012-11-14 20:18:00,
2012-11-14 14:23:00,74.4,72.2,29.97,WSW,240,4.6,4.6,93,0.25,RA,,1.61,WeatherDisplay:10.37,2012-11-14 20:23:00,
2012-11-14 14:28:00,74.5,72.3,29.97,SW,215,5.0,5.0,93,0.25,CLR,,1.61,WeatherDisplay:10.37,2012-11-14 20:28:00,
2012-11-14 14:33:00,74.9,72.7,29.97,WSW,250,8.1,8.1,93,0.25,CLR,,1.61,WeatherDisplay:10.37,2012-11-14 20:33:00,
2012-11-14 14:38:00,75.2,72.7,29.97,WSW,256,6.9,6.9,92,0.25,CLR,,1.61,WeatherDisplay:10.37,2012-11-14 20:38:00,
2012-11-14 14:43:00,75.3,73.1,29.97,WSW,239,8.1,8.1,93,0.25,CLR,,1.61,WeatherDisplay:10.37,2012-11-14 20:43:00,
2012-11-14 14:48:00,75.4,73.2,29.97,SW,229,11.5,11.5,93,0.25,CLR,,1.61,WeatherDisplay:10.37,2012-11-14 20:48:00,
2012-11-14 14:53:00,75.6,73.1,29.97,WSW,256,8.1,8.1,92,0.25,CLR,,1.61,WeatherDisplay:10.37,2012-11-14 20:53:00,
2012-11-14 14:58:00,75.5,73.3,29.97,WSW,250,10.4,10.4,93,0.23,CLR,,1.61,WeatherDisplay:10.37,2012-11-14 20:58:00,
2012-11-14 15:03:00,75.4,73.2,29.97,South,191,12.7,12.7,93,0.18,CLR,,1.61,WeatherDisplay:10.37,2012-11-14 21:03:00,
2012-11-14 15:08:00,75.3,73.5,29.97,SW,236,11.5,11.5,94,0.10,CLR,,1.61,WeatherDisplay:10.37,2012-11-14 21:08:00,
2012-11-14 15:13:00,75.3,73.5,29.97,West,277,9.2,9.2,94,0.03,CLR,,1.61,WeatherDisplay:10.37,2012-11-14 21:13:00,
2012-11-14 15:18:00,75.5,73.3,29.97,West,263,5.0,5.0,93,0.00,CLR,,1.61,WeatherDisplay:10.37,2012-11-14 21:18:00,
2012-11-14 15:23:00,75.5,73.0,29.97,SSW,202,6.9,6.9,92,0.00,CLR,,1.61,WeatherDisplay:10.37,2012-11-14 21:23:00,
2012-11-14 15:28:00,75.6,73.1,29.97,SW,222,11.0,11.0,92,0.00,CLR,,1.61,WeatherDisplay:10.37,2012-11-14 21:28:00,
2012-11-14 15:33:00,75.7,73.2,29.97,West,273,8.1,8.1,92,0.00,CLR,,1.61,WeatherDisplay:10.37,2012-11-14 21:33:00,
2012-11-14 15:38:00,76.1,73.6,29.97,WSW,250,11.5,11.5,92,0.00,CLR,,1.61,WeatherDisplay:10.37,2012-11-14 21:38:00,
2012-11-14 15:43:00,76.5,74.0,29.97,WSW,256,12.7,12.7,92,0.00,CLR,,1.61,WeatherDisplay:10.37,2012-11-14 21:43:00,
2012-11-14 15:48:00,76.5,73.7,29.97,West,271,15.0,15.0,91,0.00,CLR,,1.61,WeatherDisplay:10.37,2012-11-14 21:48:00,
2012-11-14 15:53:00,76.5,73.7,29.97,WSW,249,13.8,13.8,91,0.00,CLR,,1.61,WeatherDisplay:10.37,2012-11-14 21:53:00,
2012-11-14 15:58:00,76.7,73.9,29.97,SE,131,11.5,11.5,91,0.00,CLR,,1.61,WeatherDisplay:10.37,2012-11-14 21:58:00,
2012-11-14 16:03:00,76.6,73.4,29.97,SW,229,16.1,16.1,90,0.00,CLR,,1.61,WeatherDisplay:10.37,2012-11-14 22:03:00,
2012-11-14 16:08:00,76.6,73.4,29.97,SW,228,17.3,17.3,90,0.00,CLR,,1.61,WeatherDisplay:10.37,2012-11-14 22:08:00,
2012-11-14 16:13:00,76.6,73.8,29.97,WSW,248,16.1,16.1,91,0.00,CLR,,1.61,WeatherDisplay:10.37,2012-11-14 22:13:00,
2012-11-14 16:18:00,76.5,73.7,29.98,SW,235,11.5,11.5,91,0.00,CLR,,1.61,WeatherDisplay:10.37,2012-11-14 22:18:00,
2012-11-14 16:23:00,76.5,73.3,29.98,SW,232,11.5,11.5,90,0.00,CLR,,1.61,WeatherDisplay:10.37,2012-11-14 22:23:00,
2012-11-14 16:28:00,75.7,72.9,29.99,WNW,285,8.1,8.1,91,0.02,RA,,1.63,WeatherDisplay:10.37,2012-11-14 22:28:00,
2012-11-14 16:33:00,74.5,71.4,29.99,WSW,257,8.0,8.0,90,0.04,RA,,1.65,WeatherDisplay:10.37,2012-11-14 22:33:00,
2012-11-14 16:39:00,73.3,71.2,29.98,WSW,256,6.0,6.0,93,0.06,RA,,1.67,WeatherDisplay:10.37,2012-11-14 22:39:00,
2012-11-14 16:46:00,73.5,71.7,29.99,West,280,9.2,0.0,94,0.07,RA,,1.68,WeatherDisplay:10.37,2012-11-14 22:46:00,
2012-11-14 16:51:00,73.6,72.1,29.98,West,266,3.5,3.5,95,0.07,RA,,1.68,WeatherDisplay:10.37,2012-11-14 22:51:00,
2012-11-14 16:56:00,73.7,72.2,29.98,West,280,2.3,2.3,95,0.07,RA,,1.68,WeatherDisplay:10.37,2012-11-14 22:56:00,
2012-11-14 17:01:00,73.7,72.5,29.98,WSW,246,2.3,2.3,96,0.07,CLR,,1.68,WeatherDisplay:10.37,2012-11-14 23:01:00,
2012-11-14 17:06:00,73.8,72.6,29.98,West,278,1.1,1.1,96,0.07,CLR,,1.68,WeatherDisplay:10.37,2012-11-14 23:06:00,
2012-11-14 17:11:00,73.8,72.6,29.98,SSW,212,2.3,2.3,96,0.07,CLR,,1.68,WeatherDisplay:10.37,2012-11-14 23:11:00,
2012-11-14 17:16:00,73.5,71.7,29.98,WNW,286,3.5,3.5,94,0.07,CLR,,1.68,WeatherDisplay:10.37,2012-11-14 23:16:00,
2012-11-14 17:21:00,73.2,71.4,29.98,West,274,1.1,1.1,94,0.07,CLR,,1.68,WeatherDisplay:10.37,2012-11-14 23:21:00,
2012-11-14 17:26:00,73.3,71.8,29.98,West,264,3.5,3.5,95,0.07,CLR,,1.68,WeatherDisplay:10.37,2012-11-14 23:26:00,
2012-11-14 17:31:00,73.5,71.4,29.99,WSW,257,3.5,3.5,93,0.05,CLR,,1.68,WeatherDisplay:10.37,2012-11-14 23:31:00,
2012-11-14 17:36:00,73.9,72.1,29.99,WSW,243,4.0,4.0,94,0.04,CLR,,1.68,WeatherDisplay:10.37,2012-11-14 23:36:00,
2012-11-14 17:41:00,74.4,71.9,29.99,West,262,3.5,3.5,92,0.01,CLR,,1.68,WeatherDisplay:10.37,2012-11-14 23:41:00,
2012-11-14 17:46:00,74.1,71.6,29.99,NW,314,2.3,2.3,92,0.00,CLR,,1.68,WeatherDisplay:10.37,2012-11-14 23:46:00,
2012-11-14 17:51:00,73.6,71.4,30.00,North,5,4.6,4.6,93,0.13,RA,,1.84,WeatherDisplay:10.37,2012-11-14 23:51:00,
2012-11-14 17:56:00,73.1,71.3,30.00,West,276,3.5,3.5,94,0.26,RA,,1.94,WeatherDisplay:10.37,2012-11-14 23:56:00,
2012-11-14 18:01:00,72.9,71.4,30.01,North,352,4.0,4.0,95,0.32,RA,,2.00,WeatherDisplay:10.37,2012-11-15 00:01:00,
2012-11-14 18:06:00,72.7,71.2,30.01,West,266,2.3,2.3,95,0.36,RA,,2.04,WeatherDisplay:10.37,2012-11-15 00:06:00,
2012-11-14 18:11:00,72.6,71.1,30.01,West,259,2.3,2.3,95,0.39,RA,,2.07,WeatherDisplay:10.37,2012-11-15 00:11:00,
2012-11-14 18:16:00,72.6,71.4,30.01,WSW,255,1.1,1.1,96,0.41,RA,,2.09,WeatherDisplay:10.37,2012-11-15 00:16:00,
2012-11-14 18:21:00,72.7,71.5,30.01,West,277,2.3,2.3,96,0.41,RA,,2.09,WeatherDisplay:10.37,2012-11-15 00:21:00,
2012-11-14 18:26:00,72.7,71.2,30.01,West,264,3.5,3.5,95,0.42,RA,,2.10,WeatherDisplay:10.37,2012-11-15 00:26:00,
2012-11-14 18:31:00,72.9,71.7,30.01,WSW,255,4.0,4.0,96,0.42,RA,,2.10,WeatherDisplay:10.37,2012-11-15 00:31:00,
2012-11-14 18:36:00,73.0,71.5,30.01,West,260,5.0,5.0,95,0.42,CLR,,2.10,WeatherDisplay:10.37,2012-11-15 00:36:00,
2012-11-14 18:41:00,73.0,71.8,30.01,WSW,245,3.5,3.5,96,0.43,RA,,2.11,WeatherDisplay:10.37,2012-11-15 00:41:00,
2012-11-14 18:46:00,73.1,71.6,30.01,SW,221,4.6,4.6,95,0.45,RA,,2.13,WeatherDisplay:10.37,2012-11-15 00:46:00,
2012-11-14 18:51:00,73.1,71.6,30.01,SW,231,1.1,1.1,95,0.32,RA,,2.13,WeatherDisplay:10.37,2012-11-15 00:51:00,
2012-11-14 18:56:00,73.0,71.2,30.01,SW,221,0.0,0.0,94,0.19,CLR,,2.13,WeatherDisplay:10.37,2012-11-15 00:56:00,
2012-11-14 19:01:00,73.0,71.2,30.02,SW,236,1.1,1.1,94,0.13,CLR,,2.13,WeatherDisplay:10.37,2012-11-15 01:01:00,
2012-11-14 19:06:00,73.0,71.2,30.02,North,354,1.1,1.1,94,0.09,CLR,,2.13,WeatherDisplay:10.37,2012-11-15 01:06:00,
2012-11-14 19:11:00,73.2,71.7,30.02,WSW,245,3.5,3.5,95,0.10,RA,,2.17,WeatherDisplay:10.37,2012-11-15 01:11:00,
2012-11-14 19:16:00,73.6,72.4,30.02,WSW,250,3.5,3.5,96,0.08,RA,,2.17,WeatherDisplay:10.37,2012-11-15 01:16:00,
2012-11-14 19:21:00,73.8,72.6,30.02,West,274,2.3,2.3,96,0.13,RA,,2.22,WeatherDisplay:10.37,2012-11-15 01:21:00,
2012-11-14 19:26:00,74.0,72.8,30.02,NW,326,0.0,0.0,96,0.12,RA,,2.22,WeatherDisplay:10.37,2012-11-15 01:26:00,
2012-11-14 19:31:00,74.1,72.6,30.03,SW,233,1.1,1.1,95,0.12,,,2.22,WeatherDisplay:10.37,2012-11-15 01:31:00,
2012-11-14 19:36:00,74.4,72.9,30.02,WSW,250,3.5,3.5,95,0.12,CLR,,2.22,WeatherDisplay:10.37,2012-11-15 01:36:00,
2012-11-14 19:41:00,74.8,73.3,30.02,West,271,1.1,1.1,95,0.11,CLR,,2.22,WeatherDisplay:10.37,2012-11-15 01:41:00,
2012-11-14 19:46:00,74.9,73.1,30.03,SSW,201,0.0,0.0,94,0.09,CLR,,2.22,WeatherDisplay:10.37,2012-11-15 01:46:00,
2012-11-14 19:51:00,74.9,73.1,30.03,SSW,205,4.0,4.0,94,0.09,CLR,,2.22,WeatherDisplay:10.37,2012-11-15 01:51:00,
2012-11-14 19:56:00,75.2,73.0,30.03,South,186,4.6,4.6,93,0.09,CLR,,2.22,WeatherDisplay:10.37,2012-11-15 01:56:00,
2012-11-14 20:01:00,75.5,73.3,30.03,South,191,6.0,6.0,93,0.09,CLR,,2.22,WeatherDisplay:10.37,2012-11-15 02:01:00,
2012-11-14 20:06:00,75.5,72.7,30.03,SW,217,8.1,8.1,91,0.09,CLR,,2.22,WeatherDisplay:10.37,2012-11-15 02:06:00,
2012-11-14 20:11:00,75.8,73.0,30.03,SW,214,9.2,9.2,91,0.05,CLR,,2.22,WeatherDisplay:10.37,2012-11-15 02:11:00,
2012-11-14 20:16:00,76.0,73.2,30.03,SSW,211,9.2,9.2,91,0.05,CLR,,2.22,WeatherDisplay:10.37,2012-11-15 02:16:00,
2012-11-14 20:21:00,76.1,73.3,30.03,South,184,10.4,10.4,91,0.00,CLR,,2.22,WeatherDisplay:10.37,2012-11-15 02:21:00,
2012-11-14 20:26:00,76.2,73.7,30.03,SSW,198,8.1,8.1,92,0.00,CLR,,2.22,WeatherDisplay:10.37,2012-11-15 02:26:00,
2012-11-14 20:31:00,76.1,73.3,30.03,SSW,195,10.4,10.4,91,0.00,CLR,,2.22,WeatherDisplay:10.37,2012-11-15 02:31:00,
2012-11-14 20:36:00,76.2,73.4,30.03,SW,231,8.1,8.1,91,0.00,CLR,,2.22,WeatherDisplay:10.37,2012-11-15 02:36:00,
2012-11-14 20:41:00,76.3,73.5,30.03,SSW,195,10.4,10.4,91,0.00,CLR,,2.22,WeatherDisplay:10.37,2012-11-15 02:41:00,
2012-11-14 20:46:00,76.4,73.6,30.03,SSW,200,9.2,9.2,91,0.00,CLR,,2.22,WeatherDisplay:10.37,2012-11-15 02:46:00,
2012-11-14 20:51:00,76.0,73.2,30.06,NNW,348,12.7,12.7,91,0.11,RA,,2.41,WeatherDisplay:10.37,2012-11-15 02:51:00,
2012-11-14 20:56:00,74.8,72.3,30.05,NNW,328,5.0,5.0,92,0.38,RA,,2.63,WeatherDisplay:10.37,2012-11-15 02:56:00,
2012-11-14 21:01:00,74.0,71.8,30.05,NNE,12,4.0,4.0,93,0.48,RA,,2.70,WeatherDisplay:10.37,2012-11-15 03:01:00,
2012-11-14 21:06:00,73.5,71.7,30.04,NE,38,1.1,1.1,94,0.49,RA,,2.71,WeatherDisplay:10.37,2012-11-15 03:06:00,
2012-11-14 21:12:00,73.3,71.5,30.04,NNE,32,1.1,0.0,94,0.49,RA,,2.71,WeatherDisplay:10.37,2012-11-15 03:12:00,
2012-11-14 21:17:00,73.2,71.7,30.04,NNE,32,0.0,0.0,95,0.49,CLR,,2.71,WeatherDisplay:10.37,2012-11-15 03:17:00,
2012-11-14 21:22:00,73.3,71.8,30.04,SSE,164,0.0,0.3,95,0.49,CLR,,2.71,WeatherDisplay:10.37,2012-11-15 03:22:00,
2012-11-14 21:27:00,73.8,72.6,30.04,South,174,3.5,3.5,96,0.49,CLR,,2.71,WeatherDisplay:10.37,2012-11-15 03:27:00,
2012-11-14 21:32:00,74.4,73.2,30.04,SE,139,9.2,9.2,96,0.49,CLR,,2.72,WeatherDisplay:10.37,2012-11-15 03:32:00,
2012-11-14 21:37:00,75.0,73.2,30.04,SSE,149,9.2,9.2,94,0.50,RA,,2.72,WeatherDisplay:10.37,2012-11-15 03:37:00,
2012-11-14 21:42:00,75.5,73.3,30.04,SSE,158,9.2,9.2,93,0.50,RA,,2.72,WeatherDisplay:10.37,2012-11-15 03:42:00,
2012-11-14 21:47:00,75.7,73.2,30.04,SSW,207,10.4,10.4,92,0.50,CLR,,2.72,WeatherDisplay:10.37,2012-11-15 03:47:00,
2012-11-14 21:52:00,75.8,73.3,30.04,South,172,9.2,9.2,92,0.39,CLR,,2.72,WeatherDisplay:10.37,2012-11-15 03:52:00,
2012-11-14 21:57:00,76.0,73.5,30.04,SW,214,10.4,10.4,92,0.12,CLR,,2.72,WeatherDisplay:10.37,2012-11-15 03:57:00,
2012-11-14 22:02:00,75.9,73.1,30.03,SSW,198,8.1,8.1,91,0.02,CLR,,2.72,WeatherDisplay:10.37,2012-11-15 04:02:00,
2012-11-14 22:07:00,76.0,73.2,30.03,SSW,205,9.2,9.2,91,0.01,CLR,,2.72,WeatherDisplay:10.37,2012-11-15 04:07:00,
2012-11-14 22:12:00,75.9,73.1,30.03,West,269,9.2,9.2,91,0.01,CLR,,2.72,WeatherDisplay:10.37,2012-11-15 04:12:00,
2012-11-14 22:17:00,75.5,73.0,30.03,NW,304,3.5,3.5,92,0.01,CLR,,2.72,WeatherDisplay:10.37,2012-11-15 04:17:00,
2012-11-14 22:22:00,75.5,73.3,30.03,SSW,210,8.0,8.0,93,0.01,CLR,,2.72,WeatherDisplay:10.37,2012-11-15 04:22:00,
2012-11-14 22:27:00,75.6,73.1,30.03,NW,307,5.0,5.0,92,0.01,CLR,,2.72,WeatherDisplay:10.37,2012-11-15 04:27:00,
2012-11-14 22:32:00,75.9,73.4,30.03,West,266,8.1,8.1,92,0.01,CLR,,2.72,WeatherDisplay:10.37,2012-11-15 04:32:00,
2012-11-14 22:37:00,75.9,73.1,30.03,South,176,10.4,10.4,91,0.00,CLR,,2.72,WeatherDisplay:10.37,2012-11-15 04:37:00,
2012-11-14 22:42:00,76.1,73.3,30.03,WSW,249,8.1,8.1,91,0.01,RA,,2.73,WeatherDisplay:10.37,2012-11-15 04:42:00,
2012-11-14 22:47:00,75.9,73.1,30.02,SSW,210,8.1,8.1,91,0.01,RA,,2.73,WeatherDisplay:10.37,2012-11-15 04:47:00,
2012-11-14 22:52:00,75.9,73.4,30.03,WSW,245,8.1,8.1,92,0.01,CLR,,2.73,WeatherDisplay:10.37,2012-11-15 04:52:00,
2012-11-14 22:57:00,75.9,73.1,30.02,SSW,210,13.8,13.8,91,0.01,CLR,,2.73,WeatherDisplay:10.37,2012-11-15 04:57:00,
2012-11-14 23:00:00,76.1,73.6,30.02,SW,215,12.7,12.7,92,0.01,CLR,,2.73,WeatherDisplay:10.37,2012-11-15 05:00:00,
2012-11-14 23:05:00,76.2,73.4,30.02,West,259,11.5,11.5,91,0.01,CLR,,2.73,WeatherDisplay:10.37,2012-11-15 05:05:00,
2012-11-14 23:10:00,76.2,73.7,30.02,West,262,15.0,15.0,92,0.02,RA,,2.74,WeatherDisplay:10.37,2012-11-15 05:10:00,
2012-11-14 23:15:00,76.3,72.8,30.01,SW,231,16.1,16.1,89,0.02,RA,,2.74,WeatherDisplay:10.37,2012-11-15 05:15:00,
2012-11-14 23:20:00,76.4,73.2,30.01,WSW,242,11.0,11.0,90,0.02,,,2.74,WeatherDisplay:10.37,2012-11-15 05:20:00,
2012-11-14 23:25:00,76.1,73.0,30.01,WSW,255,10.4,10.4,90,0.02,CLR,,2.74,WeatherDisplay:10.37,2012-11-15 05:25:00,
2012-11-14 23:30:00,76.0,73.2,30.01,WNW,284,12.7,12.7,91,0.02,CLR,,2.74,WeatherDisplay:10.37,2012-11-15 05:30:00,
2012-11-14 23:35:00,76.4,73.6,30.01,SSW,211,11.5,11.5,91,0.02,CLR,,2.74,WeatherDisplay:10.37,2012-11-15 05:35:00,
2012-11-14 23:40:00,76.6,73.1,30.00,SW,214,11.5,11.5,89,0.01,CLR,,2.74,WeatherDisplay:10.37,2012-11-15 05:40:00,
2012-11-14 23:45:00,76.8,73.3,30.01,WSW,245,10.4,10.4,89,0.01,CLR,,2.74,WeatherDisplay:10.37,2012-11-15 05:45:00,
2012-11-14 23:50:00,75.8,72.3,30.00,West,271,6.9,6.9,89,0.01,CLR,,2.74,WeatherDisplay:10.37,2012-11-15 05:50:00,
2012-11-14 23:55:00,75.2,72.4,30.00,SW,232,3.5,3.5,91,0.01,CLR,,2.74,WeatherDisplay:10.37,2012-11-15 05:55:00,